[[{"header":{"parameterUnit":"m.s-1","parameterCategory":1,"la1":30.2991,"la2":30.254,"lo1":-89.0895,"lo2":-89.0444,"dx":0.0017,"dy":0.0017,"nx":28,"ny":28,"refTime":"2022-12-13T15:00:00:Z","depth":0,"parameterNumber":2,"parameterNumberName":"U-component_of_WINDS"},"data":[0,0,0,0,0,0,0,0,0,0,0,0,0,0,0,0,0,0,0,0,0,0,0,0,0,0,0,0,0,0,0,0,0,0,0,0,0,0,0,0,0,0,0,0,0,0,0,0,0,0,0,0,0,0,0,0,0,0,-3.9618,-3.9618,0,-3.967,-3.967,-3.9671,-3.957,-3.9567,-3.9563,-3.956,-3.9615,-3.962,-3.9624,0,0,0,0,0,0,0,0,0,0,0,0,0,-3.9434,-3.9438,-3.9618,-3.9618,-3.9619,-3.967,-3.967,-3.9671,-3.9571,-3.9567,-3.9563,-3.9559,-3.9614,-3.9619,-3.9625,0,0,0,0,0,0,0,0,0,0,0,0,0,-3.9503,-3.9439,-3.9618,-3.9575,-3.9572,-3.9669,-3.967,-3.9671,-3.9571,-3.9566,-3.9561,-3.9557,-3.9612,-3.9619,-3.9625,-3.9768,0,0,-3.9646,-3.9649,0,0,0,0,0,0,0,0,-3.9499,-3.951,-3.9581,-3.9578,-3.9575,-3.9608,-3.9626,-3.9704,-3.9573,-3.9572,-3.956,-3.9554,-3.9617,-3.9623,-3.9644,-3.977,-3.9772,-3.9647,-3.9651,-3.9654,-3.9656,0,0,0,0,0,0,0,-3.9494,-3.9507,-3.9638,-3.9582,-3.9578,-3.9554,-3.9558,-3.964,-3.9622,-3.9571,-3.9564,-3.9572,-3.9614,-3.9638,-3.9644,-3.9773,-3.9647,-3.9653,-3.9657,-3.966,-4.0022,-4.0027,0,0,0,0,0,0,-3.9495,-3.9504,-3.9637,-3.964,-3.9524,-3.9562,-3.9566,-3.9603,-3.9621,-3.9618,-3.9576,-3.9567,-3.9628,-3.9637,-3.9646,-3.9816,-3.9654,-3.966,-3.9664,-4.0016,-4.0023,-4.0029,0,0,0,0,0,0,-3.9491,-3.9508,-3.9634,-3.957,-3.9584,-3.957,-3.9612,-3.9606,-3.9629,-3.9624,-3.962,-3.9603,-3.9625,-3.9636,-3.9739,-3.9816,-3.9663,-3.967,-4.001,-4.0018,-4.0026,-4.0156,0,0,0,0,0,0,-3.9486,-3.9507,-3.956,-3.9572,-3.9588,-3.9726,-3.9616,-3.9611,-3.9641,-3.963,-3.9648,-3.9646,-3.9622,-3.9729,-3.9745,-3.9823,-3.9675,-4.0003,-4.0014,-4.0023,-4.0145,-4.0167,-4.0187,0,0,0,0,0,-3.948,-3.9594,-3.9563,-3.958,-3.9654,-3.973,-3.974,-3.9708,-3.9648,-3.9702,-3.9699,-3.9646,-3.9805,-3.974,-3.9758,-3.9839,-3.9998,-4.0011,-4.0023,-4.0135,-4.0163,-4.0187,0,0,0,0,0,0,-3.9592,-3.9595,-3.9561,-3.9681,-3.9707,-3.9713,-3.978,-3.9739,-3.9782,-3.9769,-3.9729,-3.9734,-3.9845,-3.9852,-3.978,-3.9979,-3.9891,-3.9908,-3.9971,-3.9997,-4.0018,-4.0015,-3.9681,0,0,0,0,0,-3.963,-3.9692,-3.9691,-3.9798,-3.9812,-3.9795,-3.9826,-3.98,-3.9825,-3.9835,-3.9839,-3.9866,-3.9922,-3.9959,-4.001,-4.0145,-4.0149,-4.0209,-4.023,-4.0248,-4.0263,-4.0337,-4.0365,-4.007,-4.007,-4.0069,0,0,-3.9711,-3.972,-3.9761,-3.9821,-3.9837,-3.9903,-3.9804,-3.9877,-3.9925,-3.9846,-3.9943,-3.9948,-3.9975,-4.0094,-4.0147,-4.0103,-4.0346,-4.0264,-4.0278,-4.0284,-4.0353,-4.0381,-4.0406,-4.0078,-4.0077,-4.0075,0,0,-3.9892,-3.9904,-3.9996,-4.0014,-4.004,-4.0028,-4.005,-4.0064,-4.0064,-4.0161,-4.0104,-4.0161,-4.0258,-4.028,-4.0304,-4.0496,-4.045,-4.0514,-4.0626,-4.0699,-4.0722,-4.0742,-4.0814,-4.0839,-4.0529,-4.0529,-4.0529,0,-3.9989,-4.0084,-4.0048,-4.0126,-4.0155,-4.0086,-4.018,-4.02,-4.0241,-4.0264,-4.0213,-4.0335,-4.0348,-4.0474,-4.0521,-4.0542,-4.0567,-4.0512,-4.0721,-4.0742,-4.076,-4.0828,-4.0854,-4.0537,-4.0536,-4.0535,-4.0534,0,-4.0204,-4.0271,-4.0342,-4.0385,-4.0422,-4.0507,-4.0485,-4.0527,-4.0498,-4.0492,-4.0593,-4.0606,-4.066,-4.0687,-4.066,-4.081,-4.0782,-4.0728,-4.0639,-4.0797,-4.086,-4.0885,-4.0548,-4.0545,-4.0543,-4.0541,0,0,-4.0456,-4.0479,-4.0506,-4.0526,-4.055,-4.0602,-4.0685,-4.0738,-4.0776,-4.0807,-4.0877,-4.0962,-4.0912,-4.094,-4.0914,-4.0978,-4.1132,-4.0915,-4.0915,-4.0957,-4.1302,-4.1345,-4.1375,-4.1101,-4.1106,-4.111,-4.1301,0,-4.0637,-4.078,-4.0751,-4.0892,-4.0955,-4.0892,-4.0964,-4.0988,-4.0985,-4.1039,-4.1035,-4.1097,-4.1025,-4.1042,-4.1102,-4.1101,-4.1201,-4.1086,-4.1169,-4.1172,-4.1166,-4.1407,-4.1452,-4.1631,-4.1325,-4.1329,-4.1332,0,-4.0867,-4.0909,-4.1056,-4.1073,-4.1098,-4.1164,-4.1212,-4.1264,-4.129,-4.1283,-4.1316,-4.1278,-4.1363,-4.1272,-4.139,-4.1312,-4.1344,-4.1349,-4.1355,-4.1363,-4.1263,-4.1424,-4.1687,-4.1716,-4.1369,-4.1366,-4.1364,0,-4.104,-4.1132,-4.1233,-4.1251,-4.1273,-4.1321,-4.1333,-4.1354,-4.1389,-4.143,-4.1453,-4.1503,-4.1532,-4.1573,-4.1551,-4.1487,-4.1674,-4.158,-4.1672,-4.1673,-4.1716,-4.1714,-4.199,-4.1733,-4.1732,-4.1732,-4.1731,0,-4.1246,-4.134,-4.1311,-4.1373,-4.1477,-4.1442,-4.1546,-4.155,-4.157,-4.1633,-4.1581,-4.1641,-4.1608,-4.1666,-4.165,-4.1751,-4.1764,-4.1762,-4.1757,-4.1768,-4.1769,-4.179,-4.1778,-4.1739,-4.1737,-4.1736,-4.1735,0,-4.1457,-4.1441,-4.1547,-4.1559,-4.1565,-4.1641,-4.1652,-4.1711,-4.1704,-4.1785,-4.1802,-4.1791,-4.1858,-4.184,-4.1911,-4.19,-4.2029,-4.2007,-4.2021,-4.2016,-4.211,-4.2102,-4.2411,-4.2451,-4.2166,-4.2169,-4.2171,0,-4.1591,-4.1661,-4.1682,-4.172,-4.1736,-4.1798,-4.1833,-4.1803,-4.1842,-4.1879,-4.1935,-4.1996,-4.2044,-4.2154,-4.2153,-4.2209,-4.2189,-4.2294,-4.2197,-4.2207,-4.2194,-4.2191,-4.2199,-4.2313,-4.2317,-4.2319,-4.2321,0,-4.1831,-4.182,-4.1873,-4.1924,-4.1968,-4.2007,-4.204,-4.2075,-4.2047,-4.2094,-4.2162,-4.2199,-4.2273,-4.2336,-4.2388,-4.24,-4.2358,-4.2352,-4.2376,-4.239,-4.2396,-4.2396,-4.2076,-4.2345,-4.2343,-4.2341,-4.234,-4.2339,-4.2009,-4.207,-4.2094,-4.2156,-4.2178,-4.2212,-4.2269,-4.2269,-4.2325,-4.2383,-4.2362,-4.244,-4.2467,-4.2531,-4.2551,-4.2612,-4.2573,-4.2608,-4.2617,-4.2627,-4.264,-4.2384,-4.2621,-4.262,-4.262,-4.2619,-4.2619,0,-4.2248,-4.2262,-4.2318,-4.2368,-4.2417,-4.2372,-4.2408,-4.2452,-4.2521,-4.255,-4.2599,-4.2678,-4.2739,-4.2744,-4.2802,-4.2851,-4.2833,-4.2867,-4.2865,-4.2869,-4.267,-4.2645,-4.2881,-4.2881,-4.2881,-4.2881,-4.2881,-4.2881,-4.2379,-4.2481,-4.2473,-4.2586,-4.2598,-4.2675,-4.27,-4.2731,-4.2754,-4.2845,-4.2896,-4.2898,-4.2918,-4.2978,-4.3033,-4.3033,-4.3058,-4.31,-4.3094,-4.2908,-4.2882,-4.2858,-4.2833,-4.3105,-4.3106,-4.3287,-4.3289,-4.329]},{"header":{"parameterUnit":"m.s-1","parameterCategory":1,"la1":30.2991,"la2":30.254,"lo1":-89.0895,"lo2":-89.0444,"dx":0.0017,"dy":0.0017,"nx":28,"ny":28,"refTime":"2022-12-13T15:00:00:Z","depth":0,"parameterNumber":3,"parameterNumberName":"V-component_of_WINDS"},"data":[0,0,0,0,0,0,0,0,0,0,0,0,0,0,0,0,0,0,0,0,0,0,0,0,0,0,0,0,0,0,0,0,0,0,0,0,0,0,0,0,0,0,0,0,0,0,0,0,0,0,0,0,0,0,0,0,0,0,-1.2955,-1.2956,0,-1.2984,-1.2984,-1.2984,-1.2958,-1.2957,-1.2956,-1.2955,-1.2984,-1.2986,-1.2988,0,0,0,0,0,0,0,0,0,0,0,0,0,-1.2877,-1.2879,-1.2955,-1.2956,-1.2956,-1.2984,-1.2984,-1.2985,-1.2959,-1.2957,-1.2956,-1.2955,-1.2984,-1.2986,-1.2988,0,0,0,0,0,0,0,0,0,0,0,0,0,-1.2909,-1.2879,-1.2955,-1.2946,-1.2946,-1.2984,-1.2984,-1.2985,-1.2959,-1.2957,-1.2956,-1.2954,-1.2983,-1.2986,-1.2988,-1.3036,0,0,-1.2996,-1.2997,0,0,0,0,0,0,0,0,-1.2907,-1.2912,-1.2947,-1.2947,-1.2947,-1.2966,-1.2967,-1.3002,-1.2959,-1.2954,-1.2955,-1.2953,-1.2979,-1.2982,-1.2991,-1.3037,-1.3039,-1.2996,-1.2998,-1.2999,-1.3,0,0,0,0,0,0,0,-1.2905,-1.2911,-1.2967,-1.2948,-1.2947,-1.2941,-1.2943,-1.2974,-1.2975,-1.2954,-1.2952,-1.2956,-1.2979,-1.2989,-1.2992,-1.3039,-1.2996,-1.2999,-1.3,-1.3001,-1.3125,-1.3127,0,0,0,0,0,0,-1.2904,-1.2909,-1.2966,-1.2967,-1.2923,-1.2943,-1.2946,-1.2961,-1.2975,-1.2975,-1.2958,-1.2955,-1.2985,-1.2989,-1.2993,-1.3049,-1.2999,-1.3002,-1.3003,-1.3124,-1.3126,-1.3128,0,0,0,0,0,0,-1.2902,-1.2909,-1.2965,-1.2938,-1.2944,-1.2946,-1.2963,-1.2963,-1.2972,-1.2977,-1.2977,-1.2967,-1.2984,-1.2989,-1.3025,-1.305,-1.3003,-1.3005,-1.3122,-1.3124,-1.3127,-1.3163,0,0,0,0,0,0,-1.29,-1.2909,-1.2927,-1.2938,-1.2946,-1.2997,-1.2965,-1.2964,-1.2977,-1.2974,-1.2986,-1.2987,-1.2983,-1.3021,-1.3028,-1.3053,-1.3007,-1.3119,-1.3123,-1.3126,-1.316,-1.3167,-1.3172,0,0,0,0,0,-1.2898,-1.2937,-1.2929,-1.2936,-1.2969,-1.2999,-1.3003,-1.2998,-1.2979,-1.2998,-1.3,-1.2987,-1.3046,-1.3025,-1.3032,-1.3058,-1.3118,-1.3122,-1.3126,-1.3157,-1.3165,-1.3172,0,0,0,0,0,0,-1.2929,-1.2938,-1.2929,-1.2973,-1.2985,-1.2994,-1.3018,-1.3007,-1.3025,-1.3021,-1.3013,-1.3016,-1.3055,-1.306,-1.3037,-1.3105,-1.3079,-1.3084,-1.31,-1.3108,-1.3114,-1.3113,-1.3009,0,0,0,0,0,-1.2941,-1.2965,-1.2971,-1.3009,-1.3016,-1.3016,-1.3028,-1.3023,-1.3035,-1.3041,-1.3046,-1.3059,-1.308,-1.3094,-1.3114,-1.316,-1.3162,-1.3181,-1.3187,-1.3193,-1.3198,-1.3222,-1.323,-1.314,-1.314,-1.314,0,0,-1.2966,-1.2974,-1.2989,-1.3016,-1.3025,-1.3049,-1.302,-1.3047,-1.3065,-1.3045,-1.3079,-1.3084,-1.3097,-1.3138,-1.3157,-1.3144,-1.3223,-1.3198,-1.3202,-1.3204,-1.3226,-1.3235,-1.3243,-1.3143,-1.3142,-1.3142,0,0,-1.3024,-1.3033,-1.3065,-1.3074,-1.3088,-1.3088,-1.3095,-1.3106,-1.3108,-1.3143,-1.3128,-1.3148,-1.3186,-1.3195,-1.3205,-1.3266,-1.3254,-1.3273,-1.3306,-1.333,-1.3337,-1.3343,-1.3364,-1.3372,-1.3277,-1.3278,-1.3278,0,-1.3054,-1.309,-1.3083,-1.3111,-1.3123,-1.3105,-1.3138,-1.3147,-1.3166,-1.3175,-1.316,-1.3205,-1.3213,-1.3256,-1.3271,-1.328,-1.3288,-1.3272,-1.3336,-1.3342,-1.3348,-1.3369,-1.3377,-1.328,-1.3279,-1.3279,-1.3279,0,-1.3126,-1.3151,-1.3175,-1.3194,-1.3209,-1.3239,-1.3236,-1.3251,-1.3244,-1.3245,-1.328,-1.3289,-1.331,-1.3319,-1.3313,-1.3361,-1.3353,-1.3337,-1.3311,-1.3359,-1.3378,-1.3386,-1.3283,-1.3282,-1.3281,-1.3281,0,0,-1.3206,-1.322,-1.3229,-1.3237,-1.325,-1.3269,-1.3298,-1.3318,-1.3332,-1.3345,-1.3369,-1.34,-1.3386,-1.3397,-1.3391,-1.3412,-1.3459,-1.3394,-1.3394,-1.3406,-1.3512,-1.3524,-1.3534,-1.3451,-1.3452,-1.3453,-1.3511,0,-1.3264,-1.3315,-1.3309,-1.3357,-1.338,-1.3362,-1.3387,-1.3398,-1.3399,-1.3418,-1.3419,-1.3442,-1.3421,-1.3427,-1.3447,-1.3449,-1.348,-1.3445,-1.3473,-1.3474,-1.347,-1.3543,-1.3556,-1.3611,-1.3519,-1.352,-1.3521,0,-1.334,-1.3356,-1.3406,-1.3415,-1.3424,-1.3447,-1.3465,-1.3484,-1.3495,-1.3494,-1.3506,-1.3497,-1.3525,-1.3498,-1.3537,-1.3513,-1.3523,-1.3526,-1.3528,-1.3531,-1.3501,-1.3548,-1.3628,-1.3636,-1.3532,-1.3532,-1.3531,0,-1.3393,-1.3427,-1.3461,-1.3469,-1.348,-1.3496,-1.3502,-1.3512,-1.3524,-1.3539,-1.3547,-1.3566,-1.3576,-1.359,-1.3586,-1.3566,-1.3625,-1.3598,-1.3626,-1.3626,-1.3639,-1.3639,-1.3722,-1.3646,-1.3646,-1.3646,-1.3645,0,-1.3459,-1.3491,-1.3485,-1.3507,-1.3541,-1.3533,-1.3568,-1.3571,-1.3579,-1.36,-1.3586,-1.3607,-1.3599,-1.3619,-1.3615,-1.3648,-1.3653,-1.3653,-1.3652,-1.3654,-1.3654,-1.3662,-1.3658,-1.3648,-1.3647,-1.3647,-1.3646,0,-1.3525,-1.3523,-1.3559,-1.3566,-1.3569,-1.3594,-1.36,-1.362,-1.3619,-1.3646,-1.3652,-1.3652,-1.3674,-1.367,-1.3695,-1.3693,-1.3733,-1.3727,-1.373,-1.3728,-1.3756,-1.3754,-1.3848,-1.386,-1.3776,-1.3776,-1.3777,0,-1.3568,-1.3592,-1.3601,-1.3614,-1.3621,-1.3642,-1.3655,-1.3647,-1.3661,-1.3675,-1.3693,-1.3714,-1.373,-1.3766,-1.3768,-1.3786,-1.3781,-1.3813,-1.3784,-1.3786,-1.3782,-1.3781,-1.3783,-1.3819,-1.382,-1.382,-1.3821,0,-1.3644,-1.3641,-1.366,-1.3678,-1.3693,-1.3707,-1.3719,-1.373,-1.3724,-1.374,-1.3762,-1.3775,-1.38,-1.3821,-1.3838,-1.3843,-1.3831,-1.383,-1.3837,-1.3841,-1.3841,-1.3841,-1.3746,-1.3828,-1.3827,-1.3827,-1.3826,-1.3826,-1.37,-1.372,-1.3729,-1.375,-1.3759,-1.377,-1.3789,-1.3791,-1.3809,-1.3829,-1.3823,-1.3849,-1.3858,-1.388,-1.3887,-1.3906,-1.3895,-1.3906,-1.3908,-1.3911,-1.3915,-1.3837,-1.391,-1.3909,-1.3909,-1.3909,-1.3909,0,-1.3775,-1.378,-1.3799,-1.3817,-1.3833,-1.382,-1.3832,-1.3847,-1.3869,-1.3879,-1.3895,-1.3921,-1.3941,-1.3944,-1.3962,-1.3977,-1.3972,-1.3982,-1.3982,-1.3983,-1.3924,-1.3916,-1.3986,-1.3986,-1.3986,-1.3986,-1.3986,-1.3986,-1.3816,-1.385,-1.3848,-1.3885,-1.3889,-1.3914,-1.3922,-1.3933,-1.3941,-1.397,-1.3986,-1.3988,-1.3995,-1.4013,-1.4031,-1.4031,-1.4039,-1.4051,-1.405,-1.3995,-1.3987,-1.398,-1.3972,-1.4053,-1.4053,-1.4107,-1.4107,-1.4108]}]]